Regional Weather Roundup
Issued by NWS

Home | Current Version | Previous Version | Text Only | Print | Product List | Glossary Off
Versions: 1 2 3 4 5 6 7 8 9 10 11 12 13 14 15 16 17 18 19 20 21 22 23 24 25 26 27 28 29 30 31 32 33 34 35 36 37 38 39 40 41 42 43 44 45 46 47 48 49 50

000
ASUS45 KTFX 280010
RWRMT
MONTANA REGIONAL WEATHER ROUNDUP
NATIONAL WEATHER SERVICE GREAT FALLS MT
600 PM MDT THU AUG 27 2015

NOTE: "FAIR" INDICATES FEW OR NO CLOUDS BELOW 12000 FEET WITH NO
SIGNIFICANT WEATHER AND/OR OBSTRUCTIONS TO VISIBILITY.

MTZ001>007-043-280100-
WEST OF THE DIVIDE

CITY           SKY/WX    TMP DP  RH WIND       PRES   REMARKS
KALISPELL      CLOUDY    87  38  17 SW5       29.96F SMOKE
MISSOULA       CLOUDY    86  39  19 W7        30.00S HAZE
BUTTE          MOSUNNY   77  36  22 VRB3      30.16S
MULLAN PASS    SUNNY     71  36  27 NW8       30.22F
DEER LODGE       N/A     79  43  27 CALM      30.12F
EUREKA           N/A     88  37  16 SW14      29.96S
HAMILTON         N/A     77  50  38 CALM      30.03S
LIBBY            N/A     88  37  16 W8        29.98S
PLAINS           N/A     90  42  18 W3        29.98S
$$

MTZ008-052>055-280100-
SOUTHWEST MONTANA

CITY           SKY/WX    TMP DP  RH WIND       PRES   REMARKS
BOZEMAN        PTSUNNY   79  43  27 S5        30.09S HAZE
DILLON         PTSUNNY   78  42  27 SE8       30.11F
W YELLOWSTONE  CLOUDY    63  43  48 S7        30.31R
$$

MTZ009-010-012-014-046-048-049-054-280100-
EAST SLOPES AND CENTRAL MONTANA

CITY           SKY/WX    TMP DP  RH WIND       PRES   REMARKS
CUT BANK       CLOUDY    84  35  17 W15       29.97F HAZE
GREAT FALLS    CLOUDY    88  34  14 SW8       29.96F HAZE
MALMSTROM AFB  MOSUNNY   87  35  15 SW10      29.96S
HELENA         CLOUDY    86  44  23 SE8       30.01F SMOKE
CONRAD           N/A     83  55  37 CALM      30.00F
$$

MTZ011-013-016-021-045-047-050-051-280100-
NORTH CENTRAL MONTANA

CITY           SKY/WX    TMP DP  RH WIND       PRES   REMARKS
HAVRE          PTSUNNY   87  45  23 S9        29.88F HAZE
LEWISTOWN      CLOUDY    83  45  26 CALM      30.03S HAZE
N BAR RANCH      N/A     79  50  36 CALM      30.07S
CHINOOK          N/A     86  48  26 SW3       29.88F
FORT BENTON      N/A     91  36  14 CALM      29.91
$$

MTZ017>020-022>027-061-062-280100-
NORTHEAST MONTANA

CITY           SKY/WX    TMP DP  RH WIND       PRES   REMARKS
GLASGOW        MOSUNNY   89  54  30 S3        29.86F
JORDAN           N/A     91  47  21 SW7       29.90F
SIDNEY         MOSUNNY   86  64  48 CALM      29.88S
WOLF POINT     MOSUNNY   90  59  35 W7        29.87S
MALTA            N/A     86  58  38 SW1       29.85S
PLENTYWOOD       N/A     88  52  29 S7        29.88S
POPLAR           N/A     90  54  29 CALM      29.88S
$$

MTZ028>42-056>058-280100-
SOUTHCENTRAL AND SOUTHEAST MONTANA

CITY           SKY/WX    TMP DP  RH WIND       PRES   REMARKS
BAKER          MOSUNNY   86  58  38 NE9       29.94S
BILLINGS       CLOUDY    80  44  27 SW20G29   30.05R
LIVINGSTON     PTSUNNY   81  39  22 SW8       30.09F HAZE
MILES CITY     MOSUNNY   91  48  22 CALM      29.91S
EKALAKA          N/A     84  52  33 W2        29.96S
FORSYTH          N/A     90  48  24 CALM      29.92S
LAUREL           N/A     75  45  34 S16       30.05R
$$

REGIONAL REPORTS...DAKOTAS

CITY           SKY/WX    TMP DP  RH WIND       PRES   REMARKS
WILLISTON      PTSUNNY   85  64  49 CALM      29.88S
MINOT          SUNNY     81  64  56 S6        29.87F
DICKINSON      SUNNY     84  58  40 E14       29.91S
CROSBY           N/A     84  55  37 SW3       29.87S
BISMARCK       MOSUNNY   82  65  56 SE8       29.92S
GRAND FORKS    PTSUNNY   75  65  70 S5        29.90S
FARGO          CLOUDY    78  65  63 S5        29.91F
BUFFALO SD       N/A     79  61  53 S10       29.88S
RAPID CITY     MOSUNNY   75  62  64 E9        30.00F
$$

REGIONAL REPORTS...WYOMING/IDAHO/WASHINGTON

CITY           SKY/WX    TMP DP  RH WIND       PRES   REMARKS
GILLETTE       MOSUNNY   81  49  32 W7        30.04F
SHERIDAN       MOSUNNY   83  46  27 NW24      30.04R
BUFFALO WY     MOSUNNY   81  45  28 N12       30.12R
CODY           CLOUDY    61  52  72 S7        30.25F
YELLOWSTONE LA   N/A     51  48  89 CALM      30.42R
IDAHO FALLS    PTSUNNY   72  54  53 E8        30.16S
SALMON         MOSUNNY   84  48  28 N6        29.98F
BOISE          SUNNY     92  37  14 N13       30.03F
SPOKANE        PTSUNNY   87  39  18 SW17G26   30.00F
$$

REGIONAL REPORTS...ALBERTA

CITY           SKY/WX    TMP DP  RH WIND       PRES   REMARKS
EDMONTON       SUNNY     79  52  38 SW7       29.79F
CALGARY        SUNNY     73  55  53 S7        29.89F SMOKE
LETHBRIDGE     CLOUDY    86  37  17 W25G36    29.89F SMOKE
MEDICINE HAT   CLOUDY    84  48  28 VRB2      29.84F SMOKE
MILK RIVER       N/A     84  39  20 W9          N/A
$$

REGIONAL REPORTS...SASKATCHEWAN

CITY           SKY/WX    TMP DP  RH WIND       PRES   REMARKS
SWIFT CURRENT  SUNNY     81  52  36 W13       29.85F
REGINA         PTSUNNY   81  64  57 S6        29.81F
SASKATOON      PTSUNNY   73  63  68 SW3       29.84S
VAL MARIE        N/A     82  48  30 W8          N/A
ROCKGLEN         N/A     77  48  36 S9          N/A
ASSINIBOIA       N/A     81  46  30 SW7         N/A
$$



USA.gov is the U.S. government's official web portal to all federal, state and local government web resources and services.